FW6663 Weather Reports


Display with metric or nautical units.
time (UTC)temp
F
wind
direction
speed
MPH
gust
MPH
rain 1hr
in
rain 24hr
in
rain mn
in
humidity
%
barometer
mb
20260506184528 51 129 0.0 2.0 0.00 0.00 0.00 87 1010.8
20260506183030 52 129 1.0 2.0 0.00 0.00 0.00 87 1010.6
20260506181530 52 129 1.0 1.0 0.00 0.00 0.00 87 1010.5
20260506180031 52 129 1.0 2.0 0.00 0.00 0.00 86 1010.2
20260506174529 52 129 1.0 1.0 0.00 0.00 0.00 87 1010.2
20260506173028 52 129 1.0 1.0 0.00 0.00 0.00 86 1010.0
20260506171542 52 129 1.0 2.0 0.00 0.00 0.00 85 1009.8
20260506170032 52 129 1.0 2.0 0.00 0.00 0.00 85 1009.7
20260506164532 52 129 2.0 3.0 0.00 0.00 0.00 85 1009.6
20260506163038 53 0 1.0 3.0 0.00 0.00 0.00 87 1009.6
20260506161527 52 0 0.0 0.0 0.00 0.00 0.00 89 1009.6
20260506160034 52 0 0.0 0.0 0.00 0.00 0.00 89 1009.7
20260506154537 52 127 0.0 0.0 0.00 0.00 0.00 89 1009.5
20260506153027 52 0 0.0 1.0 0.00 0.00 0.00 89 1009.6
20260506151530 53 0 0.0 1.0 0.00 0.00 0.00 89 1009.6
20260506150031 53 127 0.0 1.0 0.00 0.00 0.00 90 1009.4
20260506144527 54 0 0.0 1.0 0.00 0.00 0.00 90 1009.4
20260506143028 54 125 0.0 1.0 0.00 0.00 0.00 91 1009.4
20260506141528 53 120 0.0 1.0 0.00 0.00 0.00 91 1009.3
20260506140034 53 120 0.0 3.0 0.00 0.00 0.00 91 1009.5
20260506134527 52 0 0.0 0.0 0.00 0.00 0.00 93 1009.6
20260506133029 52 0 0.0 0.0 0.00 0.00 0.00 93 1009.6
20260506131532 52 0 0.0 0.0 0.00 0.00 0.00 94 1009.5
20260506130028 51 0 0.0 2.0 0.00 0.00 0.00 94 1009.5
20260506124532 51 127 2.0 3.0 0.00 0.00 0.00 94 1009.4
20260506123032 51 132 1.0 4.0 0.00 0.00 0.00 94 1009.3
20260506121531 51 128 2.0 3.0 0.00 0.00 0.00 94 1009.3
20260506120033 51 132 2.0 4.0 0.00 0.00 0.00 94 1009.2
20260506114530 51 141 1.0 3.0 0.00 0.00 0.00 95 1009.1
20260506113031 51 132 2.0 3.0 0.00 0.00 0.00 95 1009.2
20260506111531 50 130 1.0 3.0 0.00 0.00 0.00 95 1009.3
20260506110030 50 129 1.0 3.0 0.00 0.00 0.00 95 1009.2
20260506104528 50 0 0.0 2.0 0.00 0.00 0.00 95 1009.3
20260506103032 49 129 0.0 3.0 0.00 0.00 0.00 95 1009.4
20260506101528 48 125 1.0 3.0 0.00 0.00 0.00 95 1009.3
20260506100029 48 136 1.0 3.0 0.00 0.00 0.00 95 1009.1
20260506094531 48 132 1.0 2.0 0.00 0.00 0.00 95 1009.1
20260506093052 48 127 1.0 4.0 0.00 0.00 0.00 95 1008.9
20260506091528 47 125 1.0 4.0 0.00 0.00 0.00 95 1008.8
20260506090028 47 131 1.0 4.0 0.00 0.00 0.00 95 1008.6
20260506084528 47 133 1.0 4.0 0.00 0.00 0.00 95 1008.6
20260506083032 47 131 1.0 2.0 0.00 0.00 0.00 95 1008.5
20260506081531 47 128 1.0 3.0 0.00 0.00 0.00 95 1008.3
20260506073028 47 130 2.0 3.0 0.00 0.00 0.00 95 1008.1
20260506071529 46 131 2.0 3.0 0.00 0.00 0.00 95 1007.9
20260506061528 46 131 1.0 3.0 0.00 0.00 0.00 95 1007.8
20260506044529 45 131 1.0 2.0 0.00 0.00 0.00 94 1007.7
20260506043030 45 131 1.0 3.0 0.00 0.00 0.00 94 1007.6
20260506041531 46 127 1.0 3.0 0.00 0.00 0.00 94 1007.6
20260506040031 46 125 0.0 2.0 0.00 0.00 0.00 95 1007.6
20260506034528 46 131 1.0 2.0 0.00 0.00 0.00 94 1007.7
20260506033028 46 129 0.0 2.0 0.00 0.00 0.00 94 1007.8
20260506031528 46 129 1.0 3.0 0.00 0.00 0.00 94 1007.7
20260506030030 46 126 1.0 2.0 0.00 0.00 0.00 94 1007.7
20260506024532 46 129 0.0 2.0 0.00 0.00 0.00 94 1007.9
20260506023030 46 0 1.0 2.0 0.00 0.00 0.00 94 1007.9
20260506021530 46 123 1.0 2.0 0.00 0.00 0.00 94 1008.0
20260506020056 46 131 1.0 3.0 0.00 0.00 0.00 94 1007.9
20260506014528 47 131 1.0 3.0 0.00 0.00 0.00 94 1008.0
20260506013030 47 194 1.0 3.0 0.00 0.00 0.00 94 1007.9
20260506011533 47 127 1.0 3.0 0.00 0.00 0.00 94 1007.9
20260506010031 47 117 1.0 2.0 0.00 0.00 0.00 94 1008.0
20260506004534 47 141 1.0 4.0 0.00 0.00 0.00 94 1008.1
20260506003028 48 127 1.0 4.0 0.00 0.00 0.00 94 1008.2
20260506001528 48 136 0.0 2.0 0.00 0.00 0.00 94 1008.2
20260506000043 48 132 1.0 4.0 0.00 0.00 0.00 94 1008.4
20260505234534 48 131 1.0 5.0 0.00 0.00 0.00 94 1008.4
20260505233028 48 185 1.0 5.0 0.00 0.00 0.00 94 1008.5
20260505231530 49 146 0.0 2.0 0.00 0.00 0.00 94 1008.5
20260505230041 49 126 1.0 3.0 0.00 0.00 0.00 94 1008.6
20260505224536 49 128 1.0 4.0 0.00 0.00 0.00 94 1008.7
20260505223036 49 0 0.0 4.0 0.00 0.00 0.00 94 1008.7
20260505221528 49 155 0.0 2.0 0.00 0.00 0.00 94 1008.7
20260505220031 49 127 1.0 2.0 0.00 0.00 0.00 94 1008.7
20260505214528 49 134 0.0 2.0 0.00 0.00 0.00 94 1008.8
20260505213030 49 149 0.0 3.0 0.00 0.00 0.00 94 1008.9
20260505211532 49 199 0.0 1.0 0.00 0.00 0.00 94 1008.9
20260505210028 49 151 0.0 3.0 0.00 0.00 0.00 94 1009.0
20260505204528 49 134 1.0 4.0 0.00 0.00 0.00 94 1009.0
20260505203028 49 160 2.0 3.0 0.00 0.00 0.00 94 1009.0
20260505201528 49 126 1.0 4.0 0.00 0.00 0.00 94 1009.0
20260505200028 49 132 1.0 3.0 0.00 0.00 0.00 93 1008.9
20260505194527 49 131 2.0 5.0 0.00 0.00 0.00 93 1008.8
20260505193029 50 147 2.0 4.0 0.00 0.00 0.00 94 1008.8
20260505191533 50 158 1.0 5.0 0.00 0.00 0.00 94 1008.7
20260505190029 50 133 0.0 3.0 0.00 0.00 0.00 94 1008.6